Starlink 6328

operational
NORAD ID: 56523 Int'l Des: 2023-065 Owner: SPXS Country: US Constellation: starlink
LEOCIRCULAR

关于 Starlink 6328

正在加载描述...

实时位置

正在加载3D地球...

即将过境

高度历史

Altitude vs Time

uPlot chart will show altitude changes over time

两行轨道根数

1 56523U 23065W 25259.48155511 .00001250 00000-0 10755-3 0 9999
2 56523 43.0028 76.5643 0001023 266.9074 93.1652 15.02540105130420
Epoch: Sep 16, 2025 • Age: 38 hours

当前状态

高度 570.7 km
速度 7.58 km/s
星下点 -40.47°S, 64.24°W
发射日期 May 14, 2023
运行时间 2.3 years
类型 internet

技术详情

分类 Payload
质量 305.00 kg
干质量 290.00 kg
总质量 305.00 kg
长度 0.20 m
直径 2.80 m
跨度 9.00 m
形状 Box + pan
制造商 SPXS
平台类型 Starlink
阶段状态 In Orbit
所有者/国家 SPXS/US

大型星座

Loading constellations...